Time,TemperatureF,DewpointF,PressureIn,WindDirection,WindDirectionDegrees,WindSpeedMPH,WindSpeedGustMPH,Humidity,HourlyPrecipIn,Conditions,Clouds,dailyrainin,SoftwareType,DateUTC
2013-11-15 08:00:00,30.6,27.8,30.07,South,180,0.9,0.9,89,0.00,,,0.00,WUHU216HW,2013-11-15 14:00:00,
2013-11-15 08:01:00,30.6,27.8,30.07,SSE,158,0.0,0.0,89,0.00,,,0.00,WUHU216HW,2013-11-15 14:01:00,
2013-11-15 08:05:00,30.6,27.8,30.07,SSE,158,0.0,1.6,89,0.00,,,0.00,WUHU216HW,2013-11-15 14:05:00,
2013-11-15 08:10:00,30.6,27.8,30.07,SSE,158,0.0,1.6,89,0.00,,,0.00,WUHU216HW,2013-11-15 14:10:00,
2013-11-15 08:31:00,31.3,28.5,30.07,SSE,158,0.4,0.4,89,0.00,,,0.00,WUHU216HW,2013-11-15 14:31:00,
2013-11-15 08:36:00,31.3,28.5,30.07,SSE,158,0.4,0.4,89,0.00,,,0.00,WUHU216HW,2013-11-15 14:36:00,
2013-11-15 09:00:00,31.9,29.1,30.08,SW,225,0.4,0.4,89,0.00,,,0.00,WUHU216HW,2013-11-15 15:00:00,
2013-11-15 09:05:00,31.9,29.1,30.08,SW,225,0.4,0.4,89,0.00,,,0.00,WUHU216HW,2013-11-15 15:05:00,
2013-11-15 09:30:00,33.5,30.5,30.09,SSE,158,1.1,1.1,89,0.00,,,0.00,WUHU216HW,2013-11-15 15:30:00,
2013-11-15 09:35:00,33.5,30.5,30.09,SSE,158,1.1,1.1,89,0.00,,,0.00,WUHU216HW,2013-11-15 15:35:00,
2013-11-15 10:00:00,34.9,31.7,30.09,WSW,248,0.4,0.4,88,0.00,,,0.00,WUHU216HW,2013-11-15 16:00:00,
2013-11-15 10:05:00,34.9,31.7,30.09,WSW,248,0.4,0.4,88,0.00,,,0.00,WUHU216HW,2013-11-15 16:05:00,
2013-11-15 10:30:00,36.2,32.6,30.10,SE,135,0.4,0.4,87,0.00,,,0.00,WUHU216HW,2013-11-15 16:30:00,
2013-11-15 10:35:00,36.2,32.6,30.10,SE,135,0.4,0.4,87,0.00,,,0.00,WUHU216HW,2013-11-15 16:35:00,
2013-11-15 11:00:00,38.3,35.1,30.09,SE,135,1.1,1.1,88,0.00,,,0.00,WUHU216HW,2013-11-15 17:00:00,
2013-11-15 11:05:00,38.3,35.1,30.09,SE,135,1.1,1.1,88,0.00,,,0.00,WUHU216HW,2013-11-15 17:05:00,
2013-11-15 11:30:00,41.4,37.2,30.08,SW,225,1.8,1.8,85,0.00,,,0.00,WUHU216HW,2013-11-15 17:30:00,
2013-11-15 11:35:00,41.4,37.2,30.08,SW,225,1.8,1.8,85,0.00,,,0.00,WUHU216HW,2013-11-15 17:35:00,
2013-11-15 12:00:00,44.6,39.2,30.07,SE,135,2.0,2.0,81,0.00,,,0.00,WUHU216HW,2013-11-15 18:00:00,
2013-11-15 12:05:00,44.6,39.2,30.07,SE,135,2.0,2.0,81,0.00,,,0.00,WUHU216HW,2013-11-15 18:05:00,
2013-11-15 12:30:00,47.5,41.7,30.06,NW,315,0.0,0.0,80,0.00,,,0.00,WUHU216HW,2013-11-15 18:30:00,
2013-11-15 12:35:00,47.5,41.7,30.06,NW,315,0.0,0.0,80,0.00,,,0.00,WUHU216HW,2013-11-15 18:35:00,
2013-11-15 13:00:00,50.4,41.8,30.05,WSW,248,4.5,4.5,72,0.00,,,0.00,WUHU216HW,2013-11-15 19:00:00,
2013-11-15 13:05:00,50.4,41.8,30.05,WSW,248,4.5,4.5,72,0.00,,,0.00,WUHU216HW,2013-11-15 19:05:00,
2013-11-15 13:30:00,51.1,41.0,30.04,WSW,248,2.0,2.0,68,0.00,,,0.00,WUHU216HW,2013-11-15 19:30:00,
2013-11-15 13:35:00,51.1,41.0,30.04,WSW,248,2.0,2.0,68,0.00,,,0.00,WUHU216HW,2013-11-15 19:35:00,
2013-11-15 14:00:00,51.8,41.2,30.04,SW,225,2.2,2.2,67,0.00,,,0.00,WUHU216HW,2013-11-15 20:00:00,
2013-11-15 14:05:00,52.0,41.4,30.04,West,270,3.4,3.4,67,0.00,,,0.00,WUHU216HW,2013-11-15 20:05:00,
2013-11-15 14:30:00,51.7,41.0,30.04,West,270,1.8,1.8,67,0.00,,,0.00,WUHU216HW,2013-11-15 20:30:00,
2013-11-15 14:35:00,51.7,41.0,30.04,West,270,1.8,1.8,67,0.00,,,0.00,WUHU216HW,2013-11-15 20:35:00,
2013-11-15 15:00:00,50.4,39.4,30.03,SW,225,0.4,0.4,66,0.00,,,0.00,WUHU216HW,2013-11-15 21:00:00,
2013-11-15 15:05:00,50.4,39.4,30.03,SW,225,0.4,0.4,66,0.00,,,0.00,WUHU216HW,2013-11-15 21:05:00,
2013-11-15 15:30:00,49.3,38.8,30.04,SSW,203,0.4,0.4,67,0.00,,,0.00,WUHU216HW,2013-11-15 21:30:00,
2013-11-15 15:35:00,49.3,38.8,30.04,SSW,203,0.4,0.4,67,0.00,,,0.00,WUHU216HW,2013-11-15 21:35:00,
2013-11-15 16:00:00,47.9,37.8,30.04,SW,225,1.3,1.3,68,0.00,,,0.00,WUHU216HW,2013-11-15 22:00:00,
2013-11-15 16:05:00,47.9,37.8,30.04,SW,225,1.3,1.3,68,0.00,,,0.00,WUHU216HW,2013-11-15 22:05:00,
2013-11-15 16:30:00,46.4,36.9,30.04,SW,225,0.2,0.2,69,0.00,,,0.00,WUHU216HW,2013-11-15 22:30:00,
2013-11-15 16:35:00,46.4,36.9,30.04,SW,225,0.2,0.2,69,0.00,,,0.00,WUHU216HW,2013-11-15 22:35:00,
2013-11-15 17:00:00,44.5,36.0,30.04,SSE,158,0.2,0.2,72,0.00,,,0.00,WUHU216HW,2013-11-15 23:00:00,
2013-11-15 17:05:00,44.5,36.0,30.04,SSE,158,0.2,0.2,72,0.00,,,0.00,WUHU216HW,2013-11-15 23:05:00,
2013-11-15 17:30:00,42.8,34.5,30.04,SSW,203,0.9,0.9,72,0.00,,,0.00,WUHU216HW,2013-11-15 23:30:00,
2013-11-15 17:35:00,42.8,34.5,30.04,SSW,203,0.9,0.9,72,0.00,,,0.00,WUHU216HW,2013-11-15 23:35:00,
2013-11-15 18:00:00,41.6,33.8,30.04,SSE,158,0.4,0.4,74,0.00,,,0.00,WUHU216HW,2013-11-16 00:00:00,
2013-11-15 18:05:00,41.6,33.8,30.04,South,180,0.4,0.4,74,0.00,,,0.00,WUHU216HW,2013-11-16 00:05:00,
2013-11-15 18:10:00,41.6,33.8,30.04,South,180,0.4,0.4,74,0.00,,,0.00,WUHU216HW,2013-11-16 00:10:00,
2013-11-15 18:30:00,40.5,33.5,30.04,South,180,0.4,0.4,76,0.00,,,0.00,WUHU216HW,2013-11-16 00:30:00,
2013-11-15 18:35:00,40.5,33.5,30.04,South,180,0.4,0.4,76,0.00,,,0.00,WUHU216HW,2013-11-16 00:35:00,
2013-11-15 19:00:00,39.8,33.1,30.04,SSE,158,0.0,0.0,77,0.00,,,0.00,WUHU216HW,2013-11-16 01:00:00,
2013-11-15 19:05:00,39.8,33.1,30.04,SSE,158,0.0,0.0,77,0.00,,,0.00,WUHU216HW,2013-11-16 01:05:00,
2013-11-15 19:30:00,39.2,33.3,30.03,SSE,158,0.7,0.7,79,0.00,,,0.00,WUHU216HW,2013-11-16 01:30:00,
2013-11-15 19:35:00,39.2,33.3,30.03,SSE,158,0.7,0.7,79,0.00,,,0.00,WUHU216HW,2013-11-16 01:35:00,
2013-11-15 20:00:00,38.9,32.9,30.03,SSE,158,1.6,1.6,79,0.00,,,0.00,WUHU216HW,2013-11-16 02:00:00,
2013-11-15 20:05:00,38.9,32.9,30.03,SSE,158,2.7,2.7,79,0.00,,,0.00,WUHU216HW,2013-11-16 02:05:00,
2013-11-15 20:10:00,38.9,32.9,30.03,SSE,158,2.7,2.7,79,0.00,,,0.00,WUHU216HW,2013-11-16 02:10:00,
2013-11-15 20:30:00,38.9,32.9,30.03,SSE,158,0.9,0.9,79,0.00,,,0.00,WUHU216HW,2013-11-16 02:30:00,
2013-11-15 20:35:00,38.9,32.9,30.03,SSE,158,0.9,0.9,79,0.00,,,0.00,WUHU216HW,2013-11-16 02:35:00,
2013-11-15 21:00:00,38.9,32.9,30.03,SSE,158,1.6,1.6,79,0.00,,,0.00,WUHU216HW,2013-11-16 03:00:00,
2013-11-15 21:05:00,38.9,32.9,30.03,SSE,158,1.6,1.6,79,0.00,,,0.00,WUHU216HW,2013-11-16 03:05:00,
2013-11-15 21:30:00,39.1,33.1,30.04,SSE,158,1.1,1.1,79,0.00,,,0.00,WUHU216HW,2013-11-16 03:30:00,
2013-11-15 21:35:00,39.1,33.1,30.04,SSE,158,1.1,1.1,79,0.00,,,0.00,WUHU216HW,2013-11-16 03:35:00,
2013-11-15 22:00:00,39.8,33.9,30.03,South,180,2.2,2.2,79,0.00,,,0.00,WUHU216HW,2013-11-16 04:00:00,
2013-11-15 22:05:00,39.8,33.9,30.03,South,180,2.2,2.2,79,0.00,,,0.00,WUHU216HW,2013-11-16 04:05:00,